Time,TemperatureF,DewpointF,PressureIn,WindDirection,WindDirectionDegrees,WindSpeedMPH,WindSpeedGustMPH,Humidity,HourlyPrecipIn,Conditions,Clouds,dailyrainin,SoftwareType,DateUTC
2013-08-14 00:00:00,72.3,71.7,29.96,WSW,255,0.0,1.0,98,0.00,,---,0.00,VWS V14.01,2013-08-14 05:00:00,
2013-08-14 00:01:00,72.3,71.7,29.96,WSW,255,0.0,0.0,98,0.00,,---,0.00,VWS V14.01,2013-08-14 05:01:00,
2013-08-14 00:06:00,72.3,71.7,29.96,WSW,255,0.0,0.0,98,0.00,,---,0.00,VWS V14.01,2013-08-14 05:06:00,
2013-08-14 00:11:00,72.2,71.6,29.95,WSW,255,0.0,0.0,98,0.00,,---,0.00,VWS V14.01,2013-08-14 05:11:00,
2013-08-14 00:16:00,72.2,71.6,29.95,WSW,255,0.0,0.0,98,0.00,,---,0.00,VWS V14.01,2013-08-14 05:16:00,
2013-08-14 00:21:00,72.2,71.6,29.94,WSW,255,0.0,0.0,98,0.00,,---,0.00,VWS V14.01,2013-08-14 05:21:00,
2013-08-14 00:26:00,72.2,71.6,29.94,WSW,255,0.0,0.0,98,0.00,,---,0.00,VWS V14.01,2013-08-14 05:26:00,
2013-08-14 00:30:00,72.2,71.6,29.94,WSW,255,0.0,0.0,98,0.00,,---,0.00,VWS V14.01,2013-08-14 05:30:00,
2013-08-14 00:31:00,72.2,71.6,29.94,WSW,255,0.0,0.0,98,0.00,,---,0.00,VWS V14.01,2013-08-14 05:31:00,
2013-08-14 00:36:00,72.1,71.5,29.94,WSW,255,0.0,0.0,98,0.00,,---,0.00,VWS V14.01,2013-08-14 05:36:00,
2013-08-14 00:41:00,72.1,71.5,29.94,WSW,255,0.0,0.0,98,0.00,,---,0.00,VWS V14.01,2013-08-14 05:41:00,
2013-08-14 00:46:00,72.0,71.4,29.93,WSW,255,0.0,0.0,98,0.00,,---,0.00,VWS V14.01,2013-08-14 05:46:00,
2013-08-14 00:51:00,72.0,71.4,29.93,WSW,255,0.0,0.0,98,0.00,,---,0.00,VWS V14.01,2013-08-14 05:51:00,
2013-08-14 00:56:00,72.1,71.5,29.93,WSW,255,0.0,0.0,98,0.00,,---,0.00,VWS V14.01,2013-08-14 05:56:00,
2013-08-14 01:00:00,72.1,71.5,29.93,WSW,255,0.0,0.0,98,0.00,,---,0.00,VWS V14.01,2013-08-14 06:00:00,
2013-08-14 01:01:00,72.1,71.5,29.93,WSW,255,0.0,0.0,98,0.00,,---,0.00,VWS V14.01,2013-08-14 06:01:00,
2013-08-14 01:06:00,72.2,71.6,29.94,WSW,250,0.0,0.0,98,0.00,,---,0.00,VWS V14.01,2013-08-14 06:06:00,
2013-08-14 01:11:00,72.2,71.6,29.94,SE,131,1.0,1.0,98,0.00,,---,0.00,VWS V14.01,2013-08-14 06:11:00,
2013-08-14 01:16:00,72.3,71.7,29.94,ESE,122,0.0,1.0,98,0.00,,---,0.00,VWS V14.01,2013-08-14 06:16:00,
2013-08-14 01:21:00,72.3,71.7,29.93,NNE,12,0.0,1.0,98,0.00,,---,0.00,VWS V14.01,2013-08-14 06:21:00,
2013-08-14 01:26:00,72.3,71.7,29.93,NNE,12,0.0,1.0,98,0.00,,---,0.00,VWS V14.01,2013-08-14 06:26:00,
2013-08-14 01:30:00,72.3,71.7,29.93,NNE,12,0.0,1.0,98,0.00,,---,0.00,VWS V14.01,2013-08-14 06:30:00,
2013-08-14 01:31:00,72.3,71.7,29.93,NNE,12,0.0,0.0,98,0.00,,---,0.00,VWS V14.01,2013-08-14 06:31:00,
2013-08-14 01:36:00,72.2,71.6,29.93,NNE,12,0.0,0.0,98,0.00,,---,0.00,VWS V14.01,2013-08-14 06:36:00,
2013-08-14 01:41:00,72.2,71.6,29.93,NNE,12,0.0,0.0,98,0.00,,---,0.00,VWS V14.01,2013-08-14 06:41:00,
2013-08-14 01:46:00,72.2,71.6,29.93,NNE,13,0.0,1.0,98,0.00,,---,0.00,VWS V14.01,2013-08-14 06:46:00,
2013-08-14 01:51:00,72.2,71.6,29.92,NNE,13,0.0,1.0,98,0.00,,---,0.00,VWS V14.01,2013-08-14 06:51:00,
2013-08-14 01:56:00,72.2,71.6,29.92,NNE,13,0.0,1.0,98,0.00,,---,0.00,VWS V14.01,2013-08-14 06:56:00,
2013-08-14 02:00:00,72.2,71.6,29.92,NNE,25,0.0,1.0,98,0.00,,---,0.00,VWS V14.01,2013-08-14 07:00:00,
2013-08-14 02:01:00,72.2,71.6,29.92,SE,126,0.0,0.0,98,0.00,,---,0.00,VWS V14.01,2013-08-14 07:01:00,
2013-08-14 02:06:00,72.2,71.6,29.93,SE,125,0.0,0.0,98,0.00,,---,0.00,VWS V14.01,2013-08-14 07:06:00,
2013-08-14 02:11:00,72.2,71.6,29.92,SE,126,0.0,0.0,98,0.00,,---,0.00,VWS V14.01,2013-08-14 07:11:00,
2013-08-14 02:16:00,72.2,71.6,29.92,SE,126,0.0,0.0,98,0.00,,---,0.00,VWS V14.01,2013-08-14 07:16:00,
2013-08-14 02:21:00,72.2,71.6,29.92,SE,126,0.0,0.0,98,0.00,,---,0.00,VWS V14.01,2013-08-14 07:21:00,
2013-08-14 02:26:00,72.2,71.9,29.93,SE,125,0.0,0.0,99,0.00,,---,0.00,VWS V14.01,2013-08-14 07:26:00,
2013-08-14 02:30:00,72.2,71.9,29.93,SE,125,0.0,0.0,99,0.00,,---,0.00,VWS V14.01,2013-08-14 07:30:00,
2013-08-14 02:31:00,72.2,71.9,29.93,SE,126,0.0,0.0,99,0.00,,---,0.00,VWS V14.01,2013-08-14 07:31:00,
2013-08-14 02:36:00,72.3,72.0,29.92,SE,126,0.0,1.0,99,0.00,,---,0.00,VWS V14.01,2013-08-14 07:36:00,
2013-08-14 02:41:00,72.3,72.0,29.92,SE,126,0.0,1.0,99,0.00,,---,0.00,VWS V14.01,2013-08-14 07:41:00,
2013-08-14 02:46:00,72.3,72.0,29.92,SE,125,0.0,1.0,99,0.00,,---,0.00,VWS V14.01,2013-08-14 07:46:00,
2013-08-14 02:51:00,72.3,72.0,29.92,SE,126,0.0,1.0,99,0.00,,---,0.00,VWS V14.01,2013-08-14 07:51:00,
2013-08-14 02:56:00,72.2,71.9,29.91,SE,126,0.0,1.0,99,0.00,,---,0.00,VWS V14.01,2013-08-14 07:56:00,
2013-08-14 03:00:00,72.2,71.9,29.92,SE,125,0.0,1.0,99,0.00,,---,0.00,VWS V14.01,2013-08-14 08:00:00,
2013-08-14 03:01:00,72.2,71.6,29.91,SE,125,0.0,0.0,98,0.00,,---,0.00,VWS V14.01,2013-08-14 08:01:00,
2013-08-14 03:06:00,72.1,71.5,29.91,SE,125,0.0,0.0,98,0.00,,---,0.00,VWS V14.01,2013-08-14 08:06:00,
2013-08-14 03:11:00,72.2,71.9,29.91,SE,125,0.0,0.0,99,0.00,,---,0.00,VWS V14.01,2013-08-14 08:11:00,
2013-08-14 03:16:00,72.2,71.9,29.91,SE,126,0.0,0.0,99,0.00,,---,0.00,VWS V14.01,2013-08-14 08:16:00,
2013-08-14 03:21:00,72.3,72.0,29.92,SE,126,0.0,0.0,99,0.00,,---,0.00,VWS V14.01,2013-08-14 08:21:00,
2013-08-14 03:26:00,72.2,71.9,29.92,SE,125,0.0,0.0,99,0.00,,---,0.00,VWS V14.01,2013-08-14 08:26:00,
2013-08-14 03:30:00,72.3,72.0,29.92,SE,126,0.0,0.0,99,0.00,,---,0.00,VWS V14.01,2013-08-14 08:30:00,
2013-08-14 03:31:00,72.3,72.0,29.92,SE,126,0.0,0.0,99,0.00,,---,0.00,VWS V14.01,2013-08-14 08:31:00,
2013-08-14 03:36:00,72.2,71.9,29.92,SE,126,0.0,0.0,99,0.00,,---,0.00,VWS V14.01,2013-08-14 08:36:00,
2013-08-14 03:41:00,72.2,71.9,29.92,SE,126,0.0,0.0,99,0.00,,---,0.00,VWS V14.01,2013-08-14 08:41:00,
2013-08-14 03:46:00,72.2,71.9,29.92,SE,126,0.0,0.0,99,0.00,,---,0.00,VWS V14.01,2013-08-14 08:46:00,
2013-08-14 03:51:00,72.3,72.0,29.92,SE,125,0.0,0.0,99,0.00,,---,0.00,VWS V14.01,2013-08-14 08:51:00,
2013-08-14 03:56:00,72.3,72.0,29.92,SE,125,0.0,1.0,99,0.00,,---,0.00,VWS V14.01,2013-08-14 08:56:00,
2013-08-14 04:00:00,72.3,72.0,29.92,SE,125,0.0,1.0,99,0.00,,---,0.00,VWS V14.01,2013-08-14 09:00:00,
2013-08-14 04:01:00,72.3,72.0,29.92,SE,126,0.0,0.0,99,0.00,,---,0.00,VWS V14.01,2013-08-14 09:01:00,
2013-08-14 04:06:00,72.3,72.0,29.92,SE,125,0.0,1.0,99,0.00,,---,0.00,VWS V14.01,2013-08-14 09:06:00,
2013-08-14 04:11:00,72.2,71.9,29.93,SE,126,0.0,1.0,99,0.00,,---,0.00,VWS V14.01,2013-08-14 09:11:00,
2013-08-14 04:16:00,72.2,71.9,29.93,SE,125,0.0,1.0,99,0.00,,---,0.00,VWS V14.01,2013-08-14 09:16:00,
2013-08-14 04:21:00,72.3,72.0,29.93,ESE,118,0.0,1.0,99,0.00,,---,0.00,VWS V14.01,2013-08-14 09:21:00,
2013-08-14 04:26:00,72.3,72.0,29.93,ESE,119,0.0,1.0,99,0.00,,---,0.00,VWS V14.01,2013-08-14 09:26:00,
2013-08-14 04:30:00,72.3,72.0,29.93,ESE,119,0.0,1.0,99,0.00,,---,0.00,VWS V14.01,2013-08-14 09:30:00,
2013-08-14 04:31:00,72.3,72.0,29.93,ESE,119,0.0,0.0,99,0.00,,---,0.00,VWS V14.01,2013-08-14 09:31:00,
2013-08-14 04:36:00,72.2,71.9,29.93,ESE,119,0.0,1.0,99,0.00,,---,0.00,VWS V14.01,2013-08-14 09:36:00,
2013-08-14 04:41:00,72.2,71.9,29.93,ESE,119,0.0,1.0,99,0.00,,---,0.00,VWS V14.01,2013-08-14 09:41:00,
2013-08-14 04:46:00,72.3,72.0,29.93,ESE,118,0.0,1.0,99,0.00,,---,0.00,VWS V14.01,2013-08-14 09:46:00,
2013-08-14 04:51:00,72.3,72.0,29.93,ESE,118,0.0,1.0,99,0.00,,---,0.00,VWS V14.01,2013-08-14 09:51:00,
2013-08-14 04:56:00,72.3,72.0,29.94,ESE,119,0.0,1.0,99,0.00,,---,0.00,VWS V14.01,2013-08-14 09:56:00,
2013-08-14 05:00:00,72.3,72.0,29.94,ESE,118,0.0,1.0,99,0.00,,---,0.00,VWS V14.01,2013-08-14 10:00:00,
2013-08-14 05:01:00,72.3,72.0,29.94,ESE,118,0.0,0.0,99,0.00,,---,0.00,VWS V14.01,2013-08-14 10:01:00,
2013-08-14 05:06:00,72.2,71.9,29.94,ESE,119,0.0,0.0,99,0.00,,---,0.00,VWS V14.01,2013-08-14 10:06:00,
2013-08-14 05:11:00,72.3,72.0,29.94,ESE,119,0.0,0.0,99,0.00,,---,0.00,VWS V14.01,2013-08-14 10:11:00,
2013-08-14 05:16:00,72.3,72.0,29.94,ESE,119,0.0,0.0,99,0.00,,---,0.00,VWS V14.01,2013-08-14 10:16:00,
2013-08-14 05:21:00,72.2,71.9,29.94,ESE,118,0.0,0.0,99,0.00,,---,0.00,VWS V14.01,2013-08-14 10:21:00,
2013-08-14 05:26:00,72.2,71.9,29.94,ESE,119,0.0,0.0,99,0.00,,---,0.00,VWS V14.01,2013-08-14 10:26:00,
2013-08-14 05:30:00,72.1,71.8,29.94,ESE,118,0.0,0.0,99,0.00,,---,0.00,VWS V14.01,2013-08-14 10:30:00,
2013-08-14 05:31:00,72.1,71.8,29.94,ESE,118,0.0,0.0,99,0.00,,---,0.00,VWS V14.01,2013-08-14 10:31:00,
2013-08-14 05:36:00,72.1,71.8,29.94,ESE,118,0.0,0.0,99,0.00,,---,0.00,VWS V14.01,2013-08-14 10:36:00,
2013-08-14 05:41:00,72.1,71.8,29.94,ESE,118,0.0,0.0,99,0.00,,---,0.00,VWS V14.01,2013-08-14 10:41:00,
2013-08-14 05:46:00,72.1,71.8,29.94,ESE,118,0.0,0.0,99,0.00,,---,0.00,VWS V14.01,2013-08-14 10:46:00,
2013-08-14 05:51:00,72.0,71.7,29.94,ESE,118,0.0,0.0,99,0.00,,---,0.00,VWS V14.01,2013-08-14 10:51:00,
2013-08-14 05:56:00,72.1,71.8,29.94,ESE,119,0.0,0.0,99,0.00,,---,0.00,VWS V14.01,2013-08-14 10:56:00,
2013-08-14 06:00:00,72.0,71.7,29.94,ESE,119,0.0,0.0,99,0.00,,---,0.00,VWS V14.01,2013-08-14 11:00:00,
2013-08-14 06:01:00,72.0,71.7,29.94,ESE,118,0.0,0.0,99,0.00,,---,0.00,VWS V14.01,2013-08-14 11:01:00,
2013-08-14 06:06:00,72.0,71.7,29.94,ESE,119,0.0,0.0,99,0.00,,---,0.00,VWS V14.01,2013-08-14 11:06:00,
2013-08-14 06:11:00,72.0,71.7,29.94,ESE,118,0.0,0.0,99,0.00,,---,0.00,VWS V14.01,2013-08-14 11:11:00,
2013-08-14 06:16:00,72.0,71.7,29.94,ESE,118,0.0,0.0,99,0.01,,---,0.01,VWS V14.01,2013-08-14 11:16:00,
2013-08-14 06:21:00,72.0,71.7,29.94,ESE,119,0.0,0.0,99,0.01,,---,0.01,VWS V14.01,2013-08-14 11:21:00,
2013-08-14 06:26:00,72.0,71.7,29.94,ESE,119,0.0,0.0,99,0.01,,---,0.01,VWS V14.01,2013-08-14 11:26:00,
2013-08-14 06:30:00,72.1,71.8,29.94,ESE,119,0.0,0.0,99,0.01,,---,0.01,VWS V14.01,2013-08-14 11:30:00,
2013-08-14 06:31:00,72.1,71.8,29.94,ESE,119,0.0,0.0,99,0.01,,---,0.01,VWS V14.01,2013-08-14 11:31:00,
2013-08-14 06:36:00,72.2,71.9,29.94,ESE,119,0.0,0.0,99,0.01,,---,0.01,VWS V14.01,2013-08-14 11:36:00,
2013-08-14 06:41:00,72.3,72.0,29.94,ESE,118,0.0,0.0,99,0.01,,---,0.01,VWS V14.01,2013-08-14 11:41:00,
2013-08-14 06:46:00,72.3,72.0,29.94,ESE,119,0.0,0.0,99,0.01,,---,0.01,VWS V14.01,2013-08-14 11:46:00,
2013-08-14 06:51:00,72.4,72.1,29.94,ESE,119,0.0,0.0,99,0.01,,---,0.01,VWS V14.01,2013-08-14 11:51:00,
2013-08-14 06:56:00,72.6,72.3,29.94,ESE,118,0.0,0.0,99,0.01,,---,0.01,VWS V14.01,2013-08-14 11:56:00,
2013-08-14 07:00:00,72.7,72.4,29.94,ESE,118,0.0,0.0,99,0.01,,---,0.01,VWS V14.01,2013-08-14 12:00:00,
2013-08-14 07:01:00,72.7,72.4,29.94,ESE,119,0.0,0.0,99,0.01,,---,0.01,VWS V14.01,2013-08-14 12:01:00,
2013-08-14 07:06:00,72.9,72.6,29.94,ESE,119,0.0,0.0,99,0.01,,---,0.01,VWS V14.01,2013-08-14 12:06:00,
2013-08-14 07:11:00,73.0,72.7,29.94,ESE,118,0.0,0.0,99,0.01,,---,0.01,VWS V14.01,2013-08-14 12:11:00,
2013-08-14 07:16:00,73.1,72.8,29.94,ESE,118,0.0,0.0,99,0.01,,---,0.01,VWS V14.01,2013-08-14 12:16:00,
2013-08-14 07:21:00,73.3,73.0,29.94,ESE,118,0.0,0.0,99,0.01,,---,0.01,VWS V14.01,2013-08-14 12:21:00,
2013-08-14 07:26:00,73.5,73.2,29.94,ESE,118,0.0,0.0,99,0.01,,---,0.01,VWS V14.01,2013-08-14 12:26:00,
2013-08-14 07:30:00,73.6,73.3,29.94,ESE,118,0.0,0.0,99,0.01,,---,0.01,VWS V14.01,2013-08-14 12:30:00,
2013-08-14 07:31:00,73.7,73.4,29.94,ESE,118,0.0,0.0,99,0.00,,---,0.01,VWS V14.01,2013-08-14 12:31:00,
2013-08-14 07:36:00,73.7,73.4,29.94,ESE,118,0.0,0.0,99,0.00,,---,0.01,VWS V14.01,2013-08-14 12:36:00,
2013-08-14 07:41:00,74.4,74.1,29.94,ESE,118,0.0,0.0,99,0.00,,---,0.01,VWS V14.01,2013-08-14 12:41:00,
2013-08-14 07:46:00,74.9,74.6,29.94,ESE,118,0.0,0.0,99,0.00,,---,0.01,VWS V14.01,2013-08-14 12:46:00,
2013-08-14 07:51:00,75.5,75.2,29.94,ESE,119,0.0,0.0,99,0.00,,---,0.01,VWS V14.01,2013-08-14 12:51:00,
2013-08-14 07:56:00,75.6,75.3,29.94,NW,311,0.0,1.0,99,0.00,,---,0.01,VWS V14.01,2013-08-14 12:56:00,
2013-08-14 08:00:00,75.5,74.9,29.94,North,9,0.0,1.0,98,0.00,,---,0.01,VWS V14.01,2013-08-14 13:00:00,
2013-08-14 08:01:00,75.7,75.1,29.93,North,360,0.0,0.0,98,0.00,,---,0.01,VWS V14.01,2013-08-14 13:01:00,
2013-08-14 08:06:00,75.5,74.6,29.93,West,276,0.0,1.0,97,0.00,,---,0.01,VWS V14.01,2013-08-14 13:06:00,
2013-08-14 08:11:00,75.9,74.7,29.93,East,81,0.0,1.0,96,0.00,,---,0.01,VWS V14.01,2013-08-14 13:11:00,
2013-08-14 08:16:00,76.9,75.4,29.94,NNE,25,2.0,3.0,95,0.00,,---,0.01,VWS V14.01,2013-08-14 13:16:00,
2013-08-14 08:21:00,77.5,74.7,29.94,WNW,295,0.0,3.0,91,0.00,,---,0.01,VWS V14.01,2013-08-14 13:21:00,
2013-08-14 08:26:00,77.9,74.1,29.94,West,277,1.0,3.0,88,0.00,,---,0.01,VWS V14.01,2013-08-14 13:26:00,
2013-08-14 08:30:00,78.0,74.2,29.94,NE,40,0.0,4.0,88,0.00,,---,0.01,VWS V14.01,2013-08-14 13:30:00,
2013-08-14 08:31:00,78.0,74.2,29.94,West,260,1.0,1.0,88,0.00,,---,0.01,VWS V14.01,2013-08-14 13:31:00,
2013-08-14 08:36:00,78.5,75.3,29.94,WSW,241,0.0,1.0,90,0.00,,---,0.01,VWS V14.01,2013-08-14 13:36:00,
2013-08-14 08:41:00,79.8,75.6,29.94,NW,314,0.0,1.0,87,0.00,,---,0.01,VWS V14.01,2013-08-14 13:41:00,
2013-08-14 08:46:00,80.8,75.9,29.93,North,349,0.0,1.0,85,0.00,,---,0.01,VWS V14.01,2013-08-14 13:46:00,
2013-08-14 08:51:00,81.9,76.9,29.94,WNW,285,0.0,1.0,85,0.00,,---,0.01,VWS V14.01,2013-08-14 13:51:00,
2013-08-14 08:56:00,82.9,76.5,29.94,North,355,1.0,2.0,81,0.00,,---,0.01,VWS V14.01,2013-08-14 13:56:00,
2013-08-14 09:00:00,83.2,76.4,29.94,ENE,60,0.0,3.0,80,0.00,,---,0.01,VWS V14.01,2013-08-14 14:00:00,
2013-08-14 09:01:00,83.4,75.8,29.94,NW,323,2.0,2.0,78,0.00,,---,0.01,VWS V14.01,2013-08-14 14:01:00,
2013-08-14 09:06:00,83.7,75.7,29.94,WNW,295,0.0,3.0,77,0.00,,---,0.01,VWS V14.01,2013-08-14 14:06:00,
2013-08-14 09:11:00,84.5,76.1,29.94,South,180,0.0,3.0,76,0.00,,---,0.01,VWS V14.01,2013-08-14 14:11:00,
2013-08-14 09:16:00,85.1,75.9,29.94,West,273,0.0,4.0,74,0.00,,---,0.01,VWS V14.01,2013-08-14 14:16:00,
2013-08-14 09:20:00,84.4,74.8,29.95,North,1,2.0,6.0,73,0.00,,---,0.01,VWS V14.01,2013-08-14 14:20:00,
2013-08-14 09:25:00,83.3,74.2,29.94,WNW,299,1.0,6.0,74,0.00,,---,0.01,VWS V14.01,2013-08-14 14:25:00,
2013-08-14 09:30:00,83.2,74.1,29.94,NW,304,0.0,1.0,74,0.00,,---,0.01,VWS V14.01,2013-08-14 14:30:00,
2013-08-14 09:35:00,83.1,74.8,29.95,SW,233,1.0,1.0,76,0.00,,---,0.01,VWS V14.01,2013-08-14 14:35:00,
2013-08-14 09:40:00,82.9,74.9,29.95,NNW,339,0.0,3.0,77,0.00,,---,0.01,VWS V14.01,2013-08-14 14:40:00,
2013-08-14 09:45:00,83.0,75.1,29.95,NNW,330,0.0,3.0,77,0.00,,---,0.01,VWS V14.01,2013-08-14 14:45:00,
2013-08-14 09:50:00,83.0,74.7,29.95,NW,312,1.0,6.0,76,0.00,,---,0.01,VWS V14.01,2013-08-14 14:50:00,
2013-08-14 09:55:00,82.7,74.8,29.96,WNW,285,1.0,6.0,77,0.00,,---,0.01,VWS V14.01,2013-08-14 14:55:00,
2013-08-14 10:00:00,82.5,74.2,29.95,West,274,0.0,3.0,76,0.00,,---,0.01,VWS V14.01,2013-08-14 15:00:00,
2013-08-14 10:05:00,82.2,74.3,29.95,NNW,334,1.0,3.0,77,0.00,,---,0.01,VWS V14.01,2013-08-14 15:05:00,
2013-08-14 10:10:00,81.8,74.7,29.96,NNW,341,0.0,4.0,79,0.00,,---,0.01,VWS V14.01,2013-08-14 15:10:00,
2013-08-14 10:15:00,81.7,74.6,29.96,NW,318,0.0,4.0,79,0.00,,---,0.01,VWS V14.01,2013-08-14 15:15:00,
2013-08-14 10:20:00,81.9,75.5,29.96,NW,322,1.0,4.0,81,0.00,,---,0.01,VWS V14.01,2013-08-14 15:20:00,
2013-08-14 10:25:00,81.8,75.0,29.96,WNW,298,1.0,5.0,80,0.00,,---,0.01,VWS V14.01,2013-08-14 15:25:00,
2013-08-14 10:30:00,81.9,75.5,29.96,West,264,0.0,1.0,81,0.00,,---,0.01,VWS V14.01,2013-08-14 15:30:00,
2013-08-14 10:35:00,82.3,75.9,29.97,North,349,0.0,2.0,81,0.00,,---,0.01,VWS V14.01,2013-08-14 15:35:00,
2013-08-14 10:40:00,82.6,75.8,29.97,North,353,0.0,3.0,80,0.00,,---,0.01,VWS V14.01,2013-08-14 15:40:00,
2013-08-14 10:45:00,82.5,75.7,29.97,SSW,200,0.0,6.0,80,0.00,,---,0.01,VWS V14.01,2013-08-14 15:45:00,
2013-08-14 10:50:00,82.5,75.7,29.97,ENE,63,0.0,6.0,80,0.00,,---,0.01,VWS V14.01,2013-08-14 15:50:00,
2013-08-14 10:55:00,82.6,75.8,29.97,North,359,1.0,6.0,80,0.00,,---,0.01,VWS V14.01,2013-08-14 15:55:00,
2013-08-14 11:00:00,82.5,75.3,29.97,NW,318,1.0,3.0,79,0.00,,---,0.01,VWS V14.01,2013-08-14 16:00:00,
2013-08-14 11:05:00,82.0,74.5,29.97,WSW,242,3.0,6.0,78,0.00,,---,0.01,VWS V14.01,2013-08-14 16:05:00,
2013-08-14 11:10:00,81.8,75.0,29.96,NW,321,0.0,6.0,80,0.00,,---,0.01,VWS V14.01,2013-08-14 16:10:00,
2013-08-14 11:15:00,82.0,74.8,29.96,NW,311,3.0,6.0,79,0.00,,---,0.01,VWS V14.01,2013-08-14 16:15:00,
2013-08-14 11:21:00,82.0,74.8,29.96,SW,233,0.0,6.0,79,0.00,,---,0.01,VWS V14.01,2013-08-14 16:21:00,
2013-08-14 11:26:00,82.1,74.9,29.96,NW,323,2.0,6.0,79,0.00,,---,0.01,VWS V14.01,2013-08-14 16:26:00,
2013-08-14 11:30:00,82.1,75.3,29.96,WSW,255,0.0,6.0,80,0.00,,---,0.01,VWS V14.01,2013-08-14 16:30:00,
2013-08-14 11:31:00,82.2,75.4,29.95,NNW,344,0.0,4.0,80,0.00,,---,0.01,VWS V14.01,2013-08-14 16:31:00,
2013-08-14 11:36:00,82.5,75.7,29.95,NW,312,1.0,4.0,80,0.00,,---,0.01,VWS V14.01,2013-08-14 16:36:00,
2013-08-14 11:41:00,83.2,76.4,29.95,WSW,257,1.0,4.0,80,0.00,,---,0.01,VWS V14.01,2013-08-14 16:41:00,
2013-08-14 11:46:00,83.9,75.5,29.95,ESE,113,0.0,6.0,76,0.00,,---,0.01,VWS V14.01,2013-08-14 16:46:00,
2013-08-14 11:51:00,84.1,75.3,29.96,SSE,148,0.0,8.0,75,0.00,,---,0.01,VWS V14.01,2013-08-14 16:51:00,
2013-08-14 11:56:00,84.3,75.9,29.95,West,264,0.0,8.0,76,0.00,,---,0.01,VWS V14.01,2013-08-14 16:56:00,
2013-08-14 12:00:00,84.5,76.1,29.95,SSW,205,0.0,8.0,76,0.00,,---,0.01,VWS V14.01,2013-08-14 17:00:00,
2013-08-14 12:01:00,84.5,75.7,29.96,North,8,3.0,3.0,75,0.00,,---,0.01,VWS V14.01,2013-08-14 17:01:00,
2013-08-14 12:06:00,84.4,76.0,29.95,West,266,1.0,6.0,76,0.00,,---,0.01,VWS V14.01,2013-08-14 17:06:00,
2013-08-14 12:11:00,84.3,75.5,29.95,East,81,0.0,6.0,75,0.00,,---,0.01,VWS V14.01,2013-08-14 17:11:00,
2013-08-14 12:16:00,84.1,75.7,29.95,SE,131,0.0,6.0,76,0.00,,---,0.01,VWS V14.01,2013-08-14 17:16:00,
2013-08-14 12:21:00,84.3,76.3,29.95,ESE,106,1.0,6.0,77,0.00,,---,0.01,VWS V14.01,2013-08-14 17:21:00,
2013-08-14 12:26:00,84.9,76.1,29.95,NW,319,1.0,6.0,75,0.00,,---,0.01,VWS V14.01,2013-08-14 17:26:00,
2013-08-14 12:30:00,85.3,76.1,29.95,WNW,298,3.0,6.0,74,0.00,,---,0.01,VWS V14.01,2013-08-14 17:30:00,
2013-08-14 12:31:00,85.5,75.9,29.95,NW,325,3.0,3.0,73,0.00,,---,0.01,VWS V14.01,2013-08-14 17:31:00,
2013-08-14 12:36:00,85.4,76.2,29.94,ENE,74,0.0,5.0,74,0.00,,---,0.01,VWS V14.01,2013-08-14 17:36:00,
2013-08-14 12:41:00,85.2,75.6,29.94,SSE,167,4.0,6.0,73,0.00,,---,0.01,VWS V14.01,2013-08-14 17:41:00,
2013-08-14 12:46:00,85.0,75.8,29.94,North,352,2.0,6.0,74,0.00,,---,0.01,VWS V14.01,2013-08-14 17:46:00,
2013-08-14 12:51:00,84.7,75.5,29.94,NNW,338,3.0,6.0,74,0.00,,---,0.01,VWS V14.01,2013-08-14 17:51:00,
2013-08-14 12:56:00,84.6,75.8,29.94,NNW,336,0.0,6.0,75,0.00,,---,0.01,VWS V14.01,2013-08-14 17:56:00,
2013-08-14 13:00:00,84.6,75.4,29.94,North,356,1.0,6.0,74,0.00,,---,0.01,VWS V14.01,2013-08-14 18:00:00,
2013-08-14 13:01:00,84.6,75.4,29.94,NNW,347,3.0,3.0,74,0.00,,---,0.01,VWS V14.01,2013-08-14 18:01:00,
2013-08-14 13:06:00,84.1,74.9,29.94,North,353,1.0,6.0,74,0.00,,---,0.01,VWS V14.01,2013-08-14 18:06:00,
2013-08-14 13:11:00,83.8,74.6,29.94,ESE,117,1.0,6.0,74,0.00,,---,0.01,VWS V14.01,2013-08-14 18:11:00,
2013-08-14 13:16:00,83.5,75.1,29.94,West,262,1.0,6.0,76,0.00,,---,0.01,VWS V14.01,2013-08-14 18:16:00,
2013-08-14 13:21:00,83.4,74.2,29.94,North,358,4.0,6.0,74,0.00,,---,0.01,VWS V14.01,2013-08-14 18:21:00,
2013-08-14 13:26:00,83.6,74.4,29.94,NNW,336,2.0,6.0,74,0.00,,---,0.01,VWS V14.01,2013-08-14 18:26:00,
2013-08-14 13:30:00,83.7,74.5,29.94,North,4,3.0,6.0,74,0.00,,---,0.01,VWS V14.01,2013-08-14 18:30:00,
2013-08-14 13:31:00,83.8,74.2,29.94,WSW,252,4.0,6.0,73,0.00,,---,0.01,VWS V14.01,2013-08-14 18:31:00,
2013-08-14 13:36:00,84.2,75.4,29.93,ESE,102,0.0,9.0,75,0.00,,---,0.01,VWS V14.01,2013-08-14 18:36:00,
2013-08-14 13:42:00,84.7,74.7,29.93,NNW,339,2.0,9.0,72,0.00,,---,0.01,VWS V14.01,2013-08-14 18:42:00,
2013-08-14 13:47:00,85.3,75.2,29.92,ENE,65,1.0,9.0,72,0.00,,---,0.01,VWS V14.01,2013-08-14 18:47:00,
2013-08-14 13:52:00,85.9,75.8,29.92,WSW,248,1.0,9.0,72,0.00,,---,0.01,VWS V14.01,2013-08-14 18:52:00,
2013-08-14 13:57:00,86.7,76.2,29.92,WNW,301,2.0,9.0,71,0.00,,---,0.01,VWS V14.01,2013-08-14 18:57:00,
2013-08-14 14:00:00,86.7,75.3,29.92,NE,43,2.0,9.0,69,0.00,,---,0.01,VWS V14.01,2013-08-14 19:00:00,
2013-08-14 14:02:00,86.3,74.5,29.91,WNW,301,1.0,5.0,68,0.00,,---,0.01,VWS V14.01,2013-08-14 19:02:00,
2013-08-14 14:07:00,85.9,74.6,29.91,SW,218,1.0,5.0,69,0.00,,---,0.01,VWS V14.01,2013-08-14 19:07:00,
2013-08-14 14:12:00,85.8,74.9,29.91,SSE,149,0.0,5.0,70,0.00,,---,0.01,VWS V14.01,2013-08-14 19:12:00,
2013-08-14 14:17:00,85.9,75.0,29.90,South,187,0.0,5.0,70,0.00,,---,0.01,VWS V14.01,2013-08-14 19:17:00,
2013-08-14 14:22:00,86.1,74.3,29.90,West,274,0.0,5.0,68,0.00,,---,0.01,VWS V14.01,2013-08-14 19:22:00,
2013-08-14 14:27:00,86.1,74.3,29.90,SW,228,0.0,5.0,68,0.00,,---,0.01,VWS V14.01,2013-08-14 19:27:00,
2013-08-14 14:30:00,85.9,74.6,29.90,West,273,3.0,5.0,69,0.00,,---,0.01,VWS V14.01,2013-08-14 19:30:00,
2013-08-14 14:32:00,85.5,74.6,29.90,NNW,343,1.0,4.0,70,0.00,,---,0.01,VWS V14.01,2013-08-14 19:32:00,
2013-08-14 14:37:00,85.5,74.6,29.90,NW,325,1.0,7.0,70,0.00,,---,0.01,VWS V14.01,2013-08-14 19:37:00,
2013-08-14 14:42:00,86.0,74.7,29.90,SW,225,0.0,7.0,69,0.00,,---,0.01,VWS V14.01,2013-08-14 19:42:00,
2013-08-14 14:47:00,86.4,74.6,29.90,WNW,303,1.0,7.0,68,0.00,,---,0.01,VWS V14.01,2013-08-14 19:47:00,
2013-08-14 14:52:00,86.2,75.3,29.90,NNE,15,0.0,7.0,70,0.00,,---,0.01,VWS V14.01,2013-08-14 19:52:00,
2013-08-14 14:58:00,86.6,74.8,29.90,SE,131,0.0,7.0,68,0.00,,---,0.01,VWS V14.01,2013-08-14 19:58:00,
2013-08-14 15:00:00,86.6,75.2,29.90,SE,131,0.0,7.0,69,0.00,,---,0.01,VWS V14.01,2013-08-14 20:00:00,
2013-08-14 15:03:00,86.8,75.0,29.90,SW,229,0.0,2.0,68,0.00,,---,0.01,VWS V14.01,2013-08-14 20:03:00,
2013-08-14 15:08:00,87.1,76.1,29.90,SSE,152,0.0,2.0,70,0.00,,---,0.01,VWS V14.01,2013-08-14 20:08:00,
2013-08-14 15:13:00,87.3,76.3,29.90,ESE,109,0.0,2.0,70,0.00,,---,0.01,VWS V14.01,2013-08-14 20:13:00,
2013-08-14 15:18:00,87.6,75.7,29.90,SW,235,0.0,7.0,68,0.00,,---,0.01,VWS V14.01,2013-08-14 20:18:00,
2013-08-14 15:23:00,87.4,76.0,29.90,East,86,0.0,7.0,69,0.00,,---,0.01,VWS V14.01,2013-08-14 20:23:00,
2013-08-14 15:29:00,86.4,75.9,29.90,South,172,0.0,7.0,71,0.00,,---,0.01,VWS V14.01,2013-08-14 20:29:00,
2013-08-14 15:30:00,86.4,75.9,29.90,South,172,0.0,7.0,71,0.00,,---,0.01,VWS V14.01,2013-08-14 20:30:00,
2013-08-14 15:34:00,85.8,75.7,29.90,NNW,334,0.0,2.0,72,0.00,,---,0.01,VWS V14.01,2013-08-14 20:34:00,
2013-08-14 15:39:00,85.3,76.1,29.90,SSW,211,1.0,4.0,74,0.00,,---,0.01,VWS V14.01,2013-08-14 20:39:00,
2013-08-14 15:44:00,85.1,75.9,29.90,SSW,212,0.0,4.0,74,0.00,,---,0.01,VWS V14.01,2013-08-14 20:44:00,
2013-08-14 15:49:00,85.7,76.1,29.90,WNW,298,4.0,4.0,73,0.00,,---,0.01,VWS V14.01,2013-08-14 20:49:00,
2013-08-14 15:54:00,85.8,76.2,29.90,SW,219,0.0,6.0,73,0.00,,---,0.01,VWS V14.01,2013-08-14 20:54:00,
2013-08-14 15:59:00,85.4,75.8,29.90,South,176,0.0,1.0,73,0.00,,---,0.01,VWS V14.01,2013-08-14 20:59:00,
2013-08-14 16:00:00,85.4,75.8,29.90,NNW,340,2.0,6.0,73,0.00,,---,0.01,VWS V14.01,2013-08-14 21:00:00,
2013-08-14 16:04:00,84.9,75.3,29.91,ENE,65,0.0,2.0,73,0.00,,---,0.01,VWS V14.01,2013-08-14 21:04:00,
2013-08-14 16:09:00,84.3,75.5,29.91,North,351,1.0,3.0,75,0.00,,---,0.01,VWS V14.01,2013-08-14 21:09:00,
2013-08-14 16:14:00,83.9,75.1,29.91,WNW,301,0.0,3.0,75,0.00,,---,0.01,VWS V14.01,2013-08-14 21:14:00,
2013-08-14 16:19:00,83.5,75.1,29.91,West,264,0.0,3.0,76,0.00,,---,0.01,VWS V14.01,2013-08-14 21:19:00,
2013-08-14 16:24:00,83.2,75.2,29.91,ENE,69,0.0,3.0,77,0.00,,---,0.01,VWS V14.01,2013-08-14 21:24:00,
2013-08-14 16:29:00,83.0,75.1,29.91,NE,56,0.0,0.0,77,0.00,,---,0.01,VWS V14.01,2013-08-14 21:29:00,
2013-08-14 16:30:00,83.0,74.7,29.91,East,100,0.0,3.0,76,0.00,,---,0.01,VWS V14.01,2013-08-14 21:30:00,
2013-08-14 16:34:00,82.7,75.2,29.91,SW,236,0.0,2.0,78,0.00,,---,0.01,VWS V14.01,2013-08-14 21:34:00,
2013-08-14 16:39:00,82.6,75.4,29.91,ENE,68,0.0,3.0,79,0.00,,---,0.01,VWS V14.01,2013-08-14 21:39:00,
2013-08-14 16:44:00,82.3,74.8,29.91,ESE,103,2.0,3.0,78,0.00,,---,0.01,VWS V14.01,2013-08-14 21:44:00,
2013-08-14 16:49:00,82.0,75.2,29.91,NE,44,0.0,3.0,80,0.00,,---,0.01,VWS V14.01,2013-08-14 21:49:00,
2013-08-14 16:54:00,81.7,74.9,29.91,SSE,155,0.0,3.0,80,0.00,,---,0.01,VWS V14.01,2013-08-14 21:54:00,
2013-08-14 16:59:00,81.4,74.3,29.91,SE,141,1.0,1.0,79,0.00,,---,0.01,VWS V14.01,2013-08-14 21:59:00,
2013-08-14 17:00:00,81.5,74.4,29.91,NE,56,0.0,3.0,79,0.00,,---,0.01,VWS V14.01,2013-08-14 22:00:00,
2013-08-14 17:04:00,81.2,74.8,29.90,ENE,74,0.0,2.0,81,0.00,,---,0.01,VWS V14.01,2013-08-14 22:04:00,
2013-08-14 17:09:00,81.3,74.5,29.91,SE,131,0.0,2.0,80,0.00,,---,0.01,VWS V14.01,2013-08-14 22:09:00,
2013-08-14 17:14:00,82.0,75.2,29.91,West,260,1.0,3.0,80,0.00,,---,0.01,VWS V14.01,2013-08-14 22:14:00,
2013-08-14 17:19:00,82.6,75.1,29.90,ESE,110,2.0,6.0,78,0.00,,---,0.01,VWS V14.01,2013-08-14 22:19:00,
2013-08-14 17:24:00,82.5,74.9,29.90,SW,226,0.0,6.0,78,0.00,,---,0.01,VWS V14.01,2013-08-14 22:24:00,
2013-08-14 17:29:00,82.1,74.9,29.90,West,260,0.0,2.0,79,0.00,,---,0.01,VWS V14.01,2013-08-14 22:29:00,
2013-08-14 17:30:00,82.1,74.9,29.90,West,266,1.0,6.0,79,0.00,,---,0.01,VWS V14.01,2013-08-14 22:30:00,
2013-08-14 17:35:00,81.6,74.8,29.90,South,186,0.0,2.0,80,0.00,,---,0.01,VWS V14.01,2013-08-14 22:35:00,
2013-08-14 17:40:00,81.3,74.9,29.90,NW,308,2.0,2.0,81,0.00,,---,0.01,VWS V14.01,2013-08-14 22:40:00,
2013-08-14 17:45:00,80.8,74.1,29.90,ESE,102,0.0,2.0,80,0.00,,---,0.01,VWS V14.01,2013-08-14 22:45:00,
2013-08-14 17:50:00,80.2,73.5,29.90,SE,129,0.0,3.0,80,0.00,,---,0.01,VWS V14.01,2013-08-14 22:50:00,
2013-08-14 17:55:00,79.9,73.6,29.90,SSE,155,0.0,3.0,81,0.00,,---,0.01,VWS V14.01,2013-08-14 22:55:00,
2013-08-14 18:00:00,79.7,73.7,29.90,ESE,118,0.0,3.0,82,0.00,,---,0.01,VWS V14.01,2013-08-14 23:00:00,
2013-08-14 18:05:00,79.4,73.8,29.90,WNW,290,0.0,3.0,83,0.00,,---,0.01,VWS V14.01,2013-08-14 23:05:00,
2013-08-14 18:10:00,79.4,74.2,29.89,SSE,149,0.0,3.0,84,0.00,,---,0.01,VWS V14.01,2013-08-14 23:10:00,
2013-08-14 18:15:00,79.2,73.9,29.90,ENE,74,0.0,3.0,84,0.00,,---,0.01,VWS V14.01,2013-08-14 23:15:00,
2013-08-14 18:20:00,79.2,73.9,29.89,NNW,348,0.0,3.0,84,0.00,,---,0.01,VWS V14.01,2013-08-14 23:20:00,
2013-08-14 18:25:00,79.3,74.1,29.90,ENE,63,0.0,3.0,84,0.00,,---,0.01,VWS V14.01,2013-08-14 23:25:00,
2013-08-14 18:30:00,79.4,74.5,29.90,NW,320,1.0,2.0,85,0.00,,---,0.01,VWS V14.01,2013-08-14 23:30:00,
2013-08-14 18:35:00,79.5,74.2,29.90,East,96,1.0,5.0,84,0.00,,---,0.01,VWS V14.01,2013-08-14 23:35:00,
2013-08-14 18:40:00,79.5,74.6,29.90,West,263,0.0,5.0,85,0.00,,---,0.01,VWS V14.01,2013-08-14 23:40:00,
2013-08-14 18:45:00,79.5,74.6,29.90,West,276,0.0,5.0,85,0.00,,---,0.01,VWS V14.01,2013-08-14 23:45:00,
2013-08-14 18:50:00,79.4,74.5,29.90,WSW,249,0.0,5.0,85,0.00,,---,0.01,VWS V14.01,2013-08-14 23:50:00,
2013-08-14 18:55:00,79.4,74.5,29.90,NE,53,0.0,5.0,85,0.00,,---,0.01,VWS V14.01,2013-08-14 23:55:00,
2013-08-14 19:00:00,79.3,74.8,29.90,NW,305,0.0,0.0,86,0.00,,---,0.01,VWS V14.01,2013-08-15 00:00:00,
2013-08-14 19:05:00,79.1,74.6,29.91,WSW,249,0.0,3.0,86,0.00,,---,0.01,VWS V14.01,2013-08-15 00:05:00,
2013-08-14 19:10:00,79.1,74.6,29.91,West,280,0.0,3.0,86,0.00,,---,0.01,VWS V14.01,2013-08-15 00:10:00,
2013-08-14 19:15:00,79.0,74.5,29.91,NW,315,1.0,3.0,86,0.00,,---,0.01,VWS V14.01,2013-08-15 00:15:00,
2013-08-14 19:20:00,78.9,74.4,29.91,NNW,348,0.0,3.0,86,0.00,,---,0.01,VWS V14.01,2013-08-15 00:20:00,
2013-08-14 19:25:00,78.8,74.6,29.91,NE,36,0.0,3.0,87,0.00,,---,0.01,VWS V14.01,2013-08-15 00:25:00,
2013-08-14 19:30:00,78.6,74.4,29.92,NNW,335,0.0,0.0,87,0.00,,---,0.01,VWS V14.01,2013-08-15 00:30:00,
2013-08-14 19:35:00,78.5,74.3,29.92,NNW,335,0.0,0.0,87,0.00,,---,0.01,VWS V14.01,2013-08-15 00:35:00,
2013-08-14 19:40:00,78.3,74.5,29.92,West,274,0.0,0.0,88,0.00,,---,0.01,VWS V14.01,2013-08-15 00:40:00,
2013-08-14 19:45:00,78.3,74.5,29.92,WNW,283,0.0,0.0,88,0.00,,---,0.01,VWS V14.01,2013-08-15 00:45:00,
2013-08-14 19:50:00,78.1,74.3,29.92,West,281,0.0,0.0,88,0.00,,---,0.01,VWS V14.01,2013-08-15 00:50:00,
2013-08-14 19:55:00,77.9,74.4,29.92,West,281,0.0,0.0,89,0.00,,---,0.01,VWS V14.01,2013-08-15 00:55:00,
2013-08-14 19:59:00,77.8,74.3,29.92,West,281,0.0,0.0,89,0.00,,---,0.01,VWS V14.01,2013-08-15 00:59:00,
2013-08-14 20:00:00,77.8,74.3,29.92,West,281,0.0,0.0,89,0.00,,---,0.01,VWS V14.01,2013-08-15 01:00:00,
2013-08-14 20:04:00,77.6,74.4,29.92,West,280,0.0,0.0,90,0.00,,---,0.01,VWS V14.01,2013-08-15 01:04:00,
2013-08-14 20:09:00,77.5,74.3,29.92,West,280,0.0,0.0,90,0.00,,---,0.01,VWS V14.01,2013-08-15 01:09:00,
2013-08-14 20:14:00,77.4,74.2,29.92,West,280,0.0,0.0,90,0.00,,---,0.01,VWS V14.01,2013-08-15 01:14:00,
2013-08-14 20:19:00,77.2,74.0,29.92,West,280,0.0,0.0,90,0.00,,---,0.01,VWS V14.01,2013-08-15 01:19:00,
2013-08-14 20:24:00,77.1,74.3,29.92,West,280,0.0,0.0,91,0.00,,---,0.01,VWS V14.01,2013-08-15 01:24:00,
2013-08-14 20:29:00,77.2,74.4,29.92,NNW,344,0.0,0.0,91,0.00,,---,0.01,VWS V14.01,2013-08-15 01:29:00,
2013-08-14 20:30:00,77.2,74.4,29.92,NNW,346,0.0,0.0,91,0.00,,---,0.01,VWS V14.01,2013-08-15 01:30:00,
2013-08-14 20:34:00,77.2,74.4,29.93,WNW,291,0.0,0.0,91,0.00,,---,0.01,VWS V14.01,2013-08-15 01:34:00,
2013-08-14 20:39:00,77.2,74.4,29.92,WNW,291,0.0,0.0,91,0.00,,---,0.01,VWS V14.01,2013-08-15 01:39:00,
2013-08-14 20:44:00,77.3,74.5,29.92,NNE,18,0.0,1.0,91,0.00,,---,0.01,VWS V14.01,2013-08-15 01:44:00,
2013-08-14 20:49:00,77.4,74.6,29.93,WNW,294,0.0,1.0,91,0.00,,---,0.01,VWS V14.01,2013-08-15 01:49:00,
2013-08-14 20:54:00,77.5,74.7,29.93,NW,309,0.0,2.0,91,0.00,,---,0.01,VWS V14.01,2013-08-15 01:54:00,
2013-08-14 20:59:00,77.4,74.6,29.92,NW,309,0.0,0.0,91,0.00,,---,0.01,VWS V14.01,2013-08-15 01:59:00,
2013-08-14 21:00:00,77.5,74.7,29.92,NW,309,0.0,2.0,91,0.00,,---,0.01,VWS V14.01,2013-08-15 02:00:00,
2013-08-14 21:04:00,77.4,74.6,29.92,NW,309,0.0,0.0,91,0.00,,---,0.01,VWS V14.01,2013-08-15 02:04:00,
2013-08-14 21:09:00,77.3,74.5,29.92,NW,309,0.0,0.0,91,0.00,,---,0.01,VWS V14.01,2013-08-15 02:09:00,
2013-08-14 21:14:00,77.3,74.5,29.93,NW,309,0.0,0.0,91,0.00,,---,0.01,VWS V14.01,2013-08-15 02:14:00,
2013-08-14 21:19:00,77.3,74.5,29.93,NW,309,0.0,0.0,91,0.00,,---,0.01,VWS V14.01,2013-08-15 02:19:00,
2013-08-14 21:24:00,77.2,74.4,29.93,NW,309,0.0,0.0,91,0.00,,---,0.01,VWS V14.01,2013-08-15 02:24:00,
2013-08-14 21:29:00,77.2,74.7,29.93,NW,309,0.0,0.0,92,0.00,,---,0.01,VWS V14.01,2013-08-15 02:29:00,
2013-08-14 21:30:00,77.2,74.7,29.93,NW,309,0.0,0.0,92,0.00,,---,0.01,VWS V14.01,2013-08-15 02:30:00,
2013-08-14 21:34:00,77.1,74.6,29.93,NW,309,0.0,0.0,92,0.00,,---,0.01,VWS V14.01,2013-08-15 02:34:00,
2013-08-14 21:39:00,77.0,74.5,29.93,NW,309,0.0,0.0,92,0.00,,---,0.01,VWS V14.01,2013-08-15 02:39:00,
2013-08-14 21:44:00,76.9,74.4,29.93,NW,309,0.0,0.0,92,0.00,,---,0.01,VWS V14.01,2013-08-15 02:44:00,
2013-08-14 21:49:00,76.8,74.3,29.93,NW,309,0.0,0.0,92,0.00,,---,0.01,VWS V14.01,2013-08-15 02:49:00,
2013-08-14 21:54:00,76.8,74.3,29.93,NW,309,0.0,0.0,92,0.00,,---,0.01,VWS V14.01,2013-08-15 02:54:00,
2013-08-14 21:59:00,76.8,74.3,29.94,WNW,295,0.0,1.0,92,0.00,,---,0.01,VWS V14.01,2013-08-15 02:59:00,
2013-08-14 22:00:00,76.8,74.3,29.94,WNW,290,0.0,0.0,92,0.00,,---,0.01,VWS V14.01,2013-08-15 03:00:00,
2013-08-14 22:04:00,76.8,74.6,29.94,WNW,295,0.0,1.0,93,0.00,,---,0.01,VWS V14.01,2013-08-15 03:04:00,
2013-08-14 22:09:00,76.8,74.3,29.94,NNW,336,0.0,1.0,92,0.00,,---,0.01,VWS V14.01,2013-08-15 03:09:00,
2013-08-14 22:14:00,76.7,73.9,29.94,North,353,0.0,1.0,91,0.00,,---,0.01,VWS V14.01,2013-08-15 03:14:00,
2013-08-14 22:19:00,76.5,73.3,29.94,ENE,62,1.0,3.0,90,0.00,,---,0.01,VWS V14.01,2013-08-15 03:19:00,
2013-08-14 22:24:00,76.4,73.2,29.93,ENE,69,0.0,3.0,90,0.00,,---,0.01,VWS V14.01,2013-08-15 03:24:00,
2013-08-14 22:29:00,76.3,73.2,29.93,WNW,300,0.0,0.0,90,0.00,,---,0.01,VWS V14.01,2013-08-15 03:29:00,
2013-08-14 22:30:00,76.3,73.2,29.93,WNW,300,0.0,3.0,90,0.00,,---,0.01,VWS V14.01,2013-08-15 03:30:00,
2013-08-14 22:34:00,76.2,73.1,29.94,NNE,30,0.0,1.0,90,0.00,,---,0.01,VWS V14.01,2013-08-15 03:34:00,
2013-08-14 22:39:00,76.2,73.1,29.94,NNW,332,0.0,1.0,90,0.00,,---,0.01,VWS V14.01,2013-08-15 03:39:00,
2013-08-14 22:44:00,76.2,73.1,29.94,NW,307,0.0,1.0,90,0.00,,---,0.01,VWS V14.01,2013-08-15 03:44:00,
2013-08-14 22:49:00,76.1,73.0,29.94,NNW,331,0.0,1.0,90,0.00,,---,0.01,VWS V14.01,2013-08-15 03:49:00,
2013-08-14 22:54:00,76.1,73.0,29.94,NW,312,0.0,1.0,90,0.00,,---,0.01,VWS V14.01,2013-08-15 03:54:00,
2013-08-14 22:59:00,76.1,73.0,29.94,NNW,341,0.0,0.0,90,0.00,,---,0.01,VWS V14.01,2013-08-15 03:59:00,
2013-08-14 23:00:00,76.0,72.9,29.94,NNW,342,0.0,1.0,90,0.00,,---,0.01,VWS V14.01,2013-08-15 04:00:00,
2013-08-14 23:01:00,76.1,73.0,29.94,NW,308,0.0,0.0,90,0.00,,---,0.01,VWS V14.01,2013-08-15 04:01:00,
2013-08-14 23:06:00,76.0,72.9,29.94,NNE,33,0.0,0.0,90,0.00,,---,0.01,VWS V14.01,2013-08-15 04:06:00,
2013-08-14 23:11:00,75.9,73.1,29.94,NNE,13,0.0,0.0,91,0.00,,---,0.01,VWS V14.01,2013-08-15 04:11:00,
2013-08-14 23:16:00,75.8,73.0,29.94,NNE,12,0.0,0.0,91,0.00,,---,0.01,VWS V14.01,2013-08-15 04:16:00,
2013-08-14 23:21:00,75.8,73.0,29.94,North,1,1.0,2.0,91,0.00,,---,0.01,VWS V14.01,2013-08-15 04:21:00,
2013-08-14 23:26:00,75.7,72.9,29.94,North,357,1.0,4.0,91,0.00,,---,0.01,VWS V14.01,2013-08-15 04:26:00,
2013-08-14 23:30:00,75.6,73.1,29.94,North,8,0.0,5.0,92,0.00,,---,0.01,VWS V14.01,2013-08-15 04:30:00,
2013-08-14 23:31:00,75.6,73.1,29.94,ENE,74,2.0,4.0,92,0.00,,---,0.01,VWS V14.01,2013-08-15 04:31:00,
2013-08-14 23:36:00,75.5,73.0,29.94,NE,34,3.0,4.0,92,0.00,,---,0.01,VWS V14.01,2013-08-15 04:36:00,
2013-08-14 23:41:00,75.4,72.9,29.94,NNW,345,2.0,5.0,92,0.00,,---,0.01,VWS V14.01,2013-08-15 04:41:00,
2013-08-14 23:46:00,75.3,73.1,29.94,NNE,30,0.0,5.0,93,0.00,,---,0.01,VWS V14.01,2013-08-15 04:46:00,
2013-08-14 23:51:00,75.1,72.9,29.94,NNW,332,0.0,5.0,93,0.00,,---,0.01,VWS V14.01,2013-08-15 04:51:00,
2013-08-14 23:56:00,75.0,72.8,29.94,ENE,62,0.0,5.0,93,0.00,,---,0.01,VWS V14.01,2013-08-15 04:56:00,